[[{"header":{"parameterUnit":"m.s-1","parameterCategory":1,"la1":30.2991,"la2":30.254,"lo1":-89.0895,"lo2":-89.0444,"dy":0.0017,"dx":0.0017,"nx":28,"ny":28,"refTime":"2024-03-05T03:00:00:Z","depth":0,"parameterNumber":2,"parameterNumberName":"U-component_of_WINDS"},"data":[0,0,0,0,0,0,0,0,0,0,0,0,0,0,0,0,0,0,0,0,0,0,0,0,0,0,0,0,0,0,0,0,0,0,0,0,0,0,0,0,0,0,0,0,0,0,0,0,0,0,0,0,0,0,0,0,0,0,-5.7283,-5.7283,0,-5.7337,-5.7338,-5.7338,-5.7215,-5.7211,-5.7207,-5.7203,-5.7261,-5.7266,-5.7271,0,0,0,0,0,0,0,0,0,0,0,0,0,-5.7075,-5.708,-5.7283,-5.7283,-5.7284,-5.7337,-5.7338,-5.7338,-5.7216,-5.7211,-5.7206,-5.7202,-5.726,-5.7266,-5.7272,0,0,0,0,0,0,0,0,0,0,0,0,0,-5.7151,-5.7081,-5.7282,-5.7229,-5.7225,-5.7337,-5.7338,-5.7339,-5.7217,-5.7211,-5.7205,-5.7199,-5.7257,-5.7265,-5.7273,-5.744,0,0,-5.7297,-5.73,0,0,0,0,0,0,0,0,-5.7147,-5.7159,-5.7236,-5.7233,-5.7228,-5.7263,-5.7286,-5.7373,-5.7218,-5.722,-5.7203,-5.7196,-5.7267,-5.7273,-5.7297,-5.7442,-5.7445,-5.7297,-5.7302,-5.7306,-5.7308,0,0,0,0,0,0,0,-5.7142,-5.7156,-5.7304,-5.7238,-5.7233,-5.7203,-5.7208,-5.7302,-5.7276,-5.7219,-5.721,-5.7219,-5.7264,-5.729,-5.7297,-5.7446,-5.7297,-5.7304,-5.7309,-5.7312,-5.7733,-5.7739,0,0,0,0,0,0,-5.7143,-5.7152,-5.7302,-5.7306,-5.7172,-5.7212,-5.7217,-5.7258,-5.7275,-5.7271,-5.7224,-5.7213,-5.7279,-5.7288,-5.7299,-5.7496,-5.7305,-5.7313,-5.7317,-5.7726,-5.7734,-5.7741,0,0,0,0,0,0,-5.7139,-5.7158,-5.73,-5.7227,-5.7243,-5.7222,-5.7269,-5.7262,-5.7288,-5.7278,-5.7273,-5.7255,-5.7275,-5.7288,-5.7406,-5.7496,-5.7316,-5.7323,-5.7719,-5.7729,-5.7738,-5.7891,0,0,0,0,0,0,-5.7134,-5.7157,-5.7219,-5.7229,-5.7247,-5.7406,-5.7275,-5.7268,-5.7302,-5.7288,-5.7306,-5.7303,-5.7271,-5.7395,-5.7414,-5.7503,-5.733,-5.771,-5.7723,-5.7735,-5.7878,-5.7905,-5.7928,0,0,0,0,0,-5.7127,-5.726,-5.7223,-5.7242,-5.7324,-5.7411,-5.7421,-5.7382,-5.7309,-5.7372,-5.7366,-5.7302,-5.7484,-5.7408,-5.7428,-5.7522,-5.7704,-5.7719,-5.7734,-5.7867,-5.7899,-5.7927,0,0,0,0,0,0,-5.7262,-5.7261,-5.7219,-5.736,-5.7387,-5.739,-5.7468,-5.7418,-5.7466,-5.7451,-5.74,-5.7405,-5.7533,-5.7539,-5.7455,-5.7685,-5.7582,-5.7601,-5.7676,-5.7707,-5.7732,-5.7727,-5.7336,0,0,0,0,0,-5.7308,-5.7378,-5.7373,-5.7498,-5.7513,-5.7489,-5.7525,-5.7493,-5.7518,-5.7529,-5.7531,-5.756,-5.7623,-5.7665,-5.7723,-5.7879,-5.7881,-5.7953,-5.7978,-5.7999,-5.8016,-5.81,-5.8132,-5.7789,-5.7789,-5.7789,0,0,-5.7404,-5.7412,-5.7459,-5.7525,-5.7542,-5.7617,-5.7499,-5.7583,-5.7638,-5.7542,-5.7653,-5.7657,-5.7685,-5.7823,-5.7883,-5.7832,-5.8111,-5.8017,-5.8034,-5.804,-5.8118,-5.815,-5.8179,-5.7799,-5.7797,-5.7795,0,0,-5.7616,-5.763,-5.7735,-5.7755,-5.7782,-5.7765,-5.7791,-5.7803,-5.7801,-5.7912,-5.7843,-5.7908,-5.8018,-5.8041,-5.8067,-5.8292,-5.8235,-5.8312,-5.8443,-5.8525,-5.8552,-5.8576,-5.8656,-5.8685,-5.833,-5.833,-5.833,0,-5.7732,-5.7841,-5.7796,-5.7885,-5.7916,-5.7834,-5.7941,-5.7962,-5.8008,-5.8032,-5.7973,-5.811,-5.8123,-5.8266,-5.8321,-5.8345,-5.8373,-5.8309,-5.8552,-5.8575,-5.8596,-5.8672,-5.8703,-5.8339,-5.8338,-5.8337,-5.8336,0,-5.7982,-5.8059,-5.8141,-5.8186,-5.8228,-5.8325,-5.8297,-5.8344,-5.8309,-5.8299,-5.8414,-5.8427,-5.8487,-5.8518,-5.8484,-5.8657,-5.8624,-5.856,-5.8455,-5.8639,-5.871,-5.8738,-5.8352,-5.8349,-5.8346,-5.8344,0,0,-5.8279,-5.83,-5.8331,-5.8351,-5.8376,-5.8435,-5.853,-5.8588,-5.863,-5.8665,-5.8743,-5.884,-5.878,-5.8811,-5.8779,-5.8852,-5.9029,-5.8778,-5.8778,-5.8824,-5.9221,-5.9269,-5.9303,-5.8993,-5.8998,-5.9002,-5.9219,0,-5.8489,-5.8651,-5.8615,-5.8775,-5.8845,-5.877,-5.8852,-5.8878,-5.8872,-5.8932,-5.8925,-5.8994,-5.8911,-5.8929,-5.8997,-5.8993,-5.9108,-5.8977,-5.9066,-5.9069,-5.906,-5.934,-5.939,-5.9593,-5.9246,-5.9251,-5.9254,0,-5.8755,-5.88,-5.8967,-5.8982,-5.9011,-5.9086,-5.9137,-5.9195,-5.9223,-5.9214,-5.9249,-5.9204,-5.9299,-5.9195,-5.9326,-5.9238,-5.9272,-5.9276,-5.9283,-5.9289,-5.9172,-5.9353,-5.9657,-5.9688,-5.9297,-5.9294,-5.929,0,-5.8954,-5.9057,-5.917,-5.919,-5.9211,-5.9266,-5.9277,-5.9299,-5.9337,-5.9382,-5.9406,-5.9463,-5.9493,-5.9538,-5.951,-5.9437,-5.9647,-5.954,-5.9642,-5.9643,-5.9688,-5.9686,-6.0002,-5.9713,-5.9712,-5.9712,-5.9711,0,-5.9192,-5.9297,-5.926,-5.933,-5.9447,-5.9405,-5.9522,-5.9525,-5.9545,-5.9615,-5.9554,-5.9621,-5.958,-5.9644,-5.9623,-5.9736,-5.975,-5.9746,-5.9739,-5.9751,-5.9751,-5.9772,-5.9756,-5.972,-5.9718,-5.9716,-5.9715,0,-5.9433,-5.9413,-5.9532,-5.9542,-5.9548,-5.9633,-5.9642,-5.9708,-5.9699,-5.9788,-5.9807,-5.9792,-5.9865,-5.9842,-5.992,-5.9906,-6.0048,-6.0024,-6.0039,-6.0032,-6.0136,-6.0126,-6.0476,-6.0519,-6.0203,-6.0206,-6.0208,0,-5.9585,-5.9665,-5.9684,-5.9727,-5.9743,-5.9812,-5.985,-5.9814,-5.9856,-5.9896,-5.9957,-6.0025,-6.0076,-6.0196,-6.0193,-6.0253,-6.0229,-6.0347,-6.0237,-6.0247,-6.023,-6.0225,-6.0233,-6.0369,-6.0372,-6.0375,-6.0378,0,-5.9858,-5.9844,-5.9902,-5.9958,-6.0005,-6.0047,-6.0083,-6.0122,-6.0088,-6.0139,-6.0213,-6.0253,-6.0334,-6.0402,-6.0457,-6.0469,-6.0419,-6.0413,-6.0439,-6.0452,-6.0457,-6.0456,-6.0098,-6.0404,-6.0402,-6.04,-6.0398,-6.0397,-6.0059,-6.0126,-6.0151,-6.0218,-6.0242,-6.0278,-6.034,-6.0339,-6.04,-6.0462,-6.0438,-6.0523,-6.0551,-6.0619,-6.0639,-6.0706,-6.066,-6.0699,-6.0709,-6.0719,-6.0732,-6.0448,-6.0716,-6.0715,-6.0714,-6.0714,-6.0713,0,-6.0327,-6.034,-6.0402,-6.0455,-6.0509,-6.0457,-6.0495,-6.0543,-6.0619,-6.0649,-6.0702,-6.0788,-6.0854,-6.0857,-6.0919,-6.0972,-6.0951,-6.099,-6.0985,-6.0989,-6.0769,-6.0739,-6.1006,-6.1006,-6.1006,-6.1006,-6.1006,-6.1006,-6.0473,-6.0585,-6.0575,-6.0699,-6.0711,-6.0794,-6.082,-6.0853,-6.0877,-6.0976,-6.1031,-6.1032,-6.1052,-6.1116,-6.1175,-6.1174,-6.12,-6.1248,-6.1239,-6.1033,-6.1004,-6.0976,-6.0948,-6.1254,-6.1254,-6.1452,-6.1454,-6.1455]},{"header":{"parameterUnit":"m.s-1","parameterCategory":1,"la1":30.2991,"la2":30.254,"lo1":-89.0895,"lo2":-89.0444,"dy":0.0017,"dx":0.0017,"nx":28,"ny":28,"refTime":"2024-03-05T03:00:00:Z","depth":0,"parameterNumber":3,"parameterNumberName":"V-component_of_WINDS"},"data":[0,0,0,0,0,0,0,0,0,0,0,0,0,0,0,0,0,0,0,0,0,0,0,0,0,0,0,0,0,0,0,0,0,0,0,0,0,0,0,0,0,0,0,0,0,0,0,0,0,0,0,0,0,0,0,0,0,0,0.1412,0.1412,0,0.1416,0.1416,0.1416,0.1429,0.143,0.143,0.143,0.1433,0.1433,0.1433,0,0,0,0,0,0,0,0,0,0,0,0,0,0.1415,0.1415,0.1412,0.1412,0.1412,0.1416,0.1416,0.1416,0.1429,0.143,0.143,0.143,0.1434,0.1433,0.1433,0,0,0,0,0,0,0,0,0,0,0,0,0,0.1416,0.1415,0.1412,0.1419,0.142,0.1416,0.1416,0.1416,0.1429,0.143,0.143,0.143,0.1434,0.1433,0.1433,0.1423,0,0,0.1432,0.1432,0,0,0,0,0,0,0,0,0.1416,0.1416,0.1418,0.1418,0.1419,0.1423,0.1419,0.1418,0.1429,0.1425,0.143,0.1431,0.1429,0.143,0.1429,0.1423,0.1423,0.1432,0.1432,0.1432,0.1432,0,0,0,0,0,0,0,0.1416,0.1416,0.1413,0.1418,0.1419,0.1422,0.1423,0.1419,0.1425,0.1426,0.1427,0.1427,0.143,0.143,0.143,0.1423,0.1432,0.1432,0.1432,0.1432,0.1411,0.1411,0,0,0,0,0,0,0.1415,0.1416,0.1413,0.1414,0.1419,0.1422,0.1422,0.1421,0.1425,0.1426,0.1427,0.1428,0.143,0.143,0.143,0.1419,0.1432,0.1432,0.1432,0.1412,0.1411,0.1411,0,0,0,0,0,0,0.1415,0.1415,0.1413,0.1415,0.1415,0.1421,0.142,0.1421,0.1421,0.1426,0.1427,0.1425,0.143,0.143,0.1425,0.142,0.1432,0.1431,0.1412,0.1411,0.1411,0.1398,0,0,0,0,0,0,0.1415,0.1414,0.141,0.1415,0.1415,0.1408,0.1419,0.1421,0.142,0.1422,0.1425,0.1426,0.1431,0.1425,0.1425,0.1419,0.1431,0.1413,0.1412,0.1411,0.1399,0.1397,0.1395,0,0,0,0,0,0.1415,0.1405,0.141,0.1409,0.141,0.1408,0.1408,0.1414,0.142,0.1416,0.142,0.1426,0.1421,0.1425,0.1424,0.1419,0.1413,0.1412,0.1411,0.1399,0.1397,0.1395,0,0,0,0,0,0,0.1398,0.1406,0.1411,0.1402,0.1404,0.141,0.1405,0.1411,0.1411,0.1412,0.1419,0.142,0.1414,0.1416,0.1421,0.141,0.1418,0.1417,0.1409,0.1407,0.1405,0.1405,0.1431,0,0,0,0,0,0.1394,0.1392,0.1398,0.139,0.1391,0.1398,0.1397,0.1402,0.1404,0.1405,0.1408,0.141,0.1409,0.1408,0.1408,0.1399,0.1401,0.1396,0.1394,0.1392,0.1391,0.1389,0.1387,0.1408,0.1408,0.1408,0,0,0.1384,0.1388,0.1386,0.1387,0.1389,0.1387,0.1398,0.1395,0.1394,0.1404,0.14,0.1403,0.1406,0.14,0.1397,0.1401,0.1386,0.1391,0.139,0.139,0.1388,0.1386,0.1384,0.1407,0.1407,0.1408,0,0,0.1366,0.1368,0.1362,0.1365,0.1369,0.1374,0.1373,0.1378,0.1381,0.1377,0.1386,0.1385,0.1382,0.1385,0.1385,0.1372,0.1377,0.1371,0.1362,0.1359,0.1358,0.1356,0.1352,0.1351,0.137,0.137,0.137,0,0.1353,0.135,0.1359,0.1356,0.1357,0.1368,0.1363,0.1365,0.1368,0.1369,0.1373,0.1373,0.1375,0.1371,0.1368,0.1368,0.1367,0.137,0.1357,0.1356,0.1355,0.1351,0.1349,0.1369,0.1369,0.1369,0.137,0,0.1335,0.1333,0.1329,0.1333,0.1333,0.1329,0.1338,0.1338,0.1344,0.1349,0.1346,0.135,0.1351,0.1351,0.1355,0.1348,0.135,0.1356,0.1364,0.1352,0.1349,0.1347,0.1368,0.1369,0.1369,0.1369,0,0,0.1303,0.1315,0.1313,0.1316,0.1323,0.1322,0.1319,0.1322,0.1322,0.1325,0.1323,0.1323,0.1329,0.133,0.1336,0.1334,0.1325,0.1341,0.1341,0.1338,0.1318,0.1313,0.1312,0.1329,0.1329,0.1329,0.1318,0,0.1286,0.1283,0.1292,0.1286,0.1286,0.1298,0.1296,0.1301,0.1306,0.1307,0.1313,0.1313,0.132,0.1322,0.132,0.1326,0.1321,0.1327,0.1328,0.1328,0.1327,0.131,0.1304,0.1294,0.1317,0.1316,0.1316,0,0.1265,0.1269,0.1263,0.1273,0.1273,0.1271,0.1276,0.1276,0.1282,0.1286,0.1289,0.1297,0.1296,0.1304,0.1304,0.1308,0.131,0.1313,0.1313,0.1312,0.1321,0.1309,0.129,0.1289,0.1314,0.1314,0.1314,0,0.1244,0.1247,0.1245,0.1247,0.1258,0.1257,0.1261,0.1268,0.1269,0.1273,0.1275,0.1278,0.128,0.1283,0.1292,0.1297,0.1291,0.13,0.1295,0.1295,0.1292,0.1292,0.1273,0.1294,0.1294,0.1294,0.1294,0,0.1224,0.122,0.1236,0.1234,0.1232,0.1243,0.124,0.1246,0.1252,0.1252,0.1263,0.1263,0.1275,0.1277,0.1284,0.1284,0.1284,0.1288,0.129,0.1287,0.1287,0.1287,0.1288,0.1293,0.1293,0.1293,0.1293,0,0.1198,0.1209,0.1207,0.1219,0.1222,0.1219,0.1229,0.1229,0.1236,0.1237,0.1238,0.1249,0.1252,0.1262,0.1267,0.1272,0.1269,0.1273,0.1267,0.1269,0.1264,0.1264,0.1244,0.1243,0.1264,0.1264,0.1264,0,0.1184,0.1182,0.1195,0.1196,0.1201,0.1203,0.1206,0.1218,0.122,0.1228,0.1227,0.1232,0.1236,0.124,0.1249,0.1254,0.1257,0.125,0.1258,0.1256,0.1258,0.1258,0.1258,0.1248,0.1248,0.1248,0.1248,0,0.1159,0.1165,0.1169,0.1175,0.1178,0.1183,0.1189,0.119,0.1204,0.1206,0.121,0.1213,0.122,0.1225,0.1231,0.1236,0.1244,0.1246,0.1245,0.1241,0.1239,0.1241,0.1263,0.1246,0.1246,0.1246,0.1246,0.1246,0.1139,0.1139,0.1148,0.1153,0.1159,0.1165,0.1166,0.1175,0.1178,0.1185,0.1192,0.1196,0.1205,0.1215,0.122,0.1223,0.1227,0.1226,0.1225,0.1225,0.1224,0.1239,0.1224,0.1224,0.1224,0.1224,0.1224,0,0.1115,0.1123,0.1127,0.1136,0.114,0.1149,0.1156,0.1159,0.1162,0.117,0.1175,0.1181,0.1186,0.1196,0.1203,0.1204,0.1208,0.1205,0.1205,0.1206,0.1219,0.122,0.1202,0.1202,0.1202,0.1202,0.1202,0.1202,0.1103,0.1103,0.1111,0.1116,0.1123,0.1128,0.1132,0.1138,0.1144,0.1151,0.1156,0.1163,0.1172,0.118,0.1186,0.1189,0.119,0.1186,0.1191,0.1203,0.1205,0.1207,0.1207,0.1187,0.1187,0.1177,0.1177,0.1177]}]]